Location: Binningen
(47.7924°N, 8.7261°E)
Time: 23:17:07
(UTC+00:00)

Terra - Pass Details

Date: 05 October 2021
Orbit: 701 x 703 km, 98.2° (Epoch: 18 October)

Event Time Altitude Azimuth Distance (km) Brightness Sun altitude
Exits shadow 20:29:04 13° 6° (N) 2,001 4.4 -34.7°
Drops below altitude 10° 20:29:34 10° 3° (N) 2,180 4.7 -34.8°
Sets 20:32:00 0° 354° (N) 3,103 5.7 -35.1°
